• Join FlightAware (Why Join?)
  • Login
  • US Flag GB Flag 
18:52 EDT


 

Airport Tracker/Info


-or-


 

Live Flight TrackerFlight Track Log ✈ DAL268 ✈ 21-Jul-2013 ✈ KSFO - KJFK

Flight Track Log - Related Links

Times and Time Zones

All times are in EDT time to prevent confusion due to time zone crossing. See the DAL268 flight status page for this flight to view local times or setup timezone preferences in your user account.

Time Position Orientation Groundspeed Altitude Reporting Facility
EDT Latitude Longitude Course Direction KTS MPH feet Rate Location/Type
14:22 37.6160 -122.3820 North 9 10  Level FlightAware
14:22 37.6160 -122.3810 90° East 9 10  Level FlightAware
14:25 37.8481 -122.1352 38° Northeast  Level FlightAware Approximate
14:26 37.9437 -122.0396 38° Northeast  Level FlightAware Approximate
14:27 38.0313 -121.9414 35° Northeast  Level FlightAware Approximate
14:27 37.6110 -122.3830 35° Northeast 18 21  Level FlightAware
14:28 37.6100 -122.3840 218° Southwest 22 25  Level FlightAware
14:30 37.6070 -122.3840 180° South 60 Level FlightAware
14:32 37.6060 -122.3830 142° Southeast 11 13 60 Level FlightAware
14:35 37.8293 -122.1540 38° Northeast  Level FlightAware Approximate
14:36 37.9249 -122.0585 38° Northeast  Level FlightAware Approximate
14:37 38.0115 -121.9587 35° Northeast  Level FlightAware Approximate
14:38 38.1118 -121.8709 35° Northeast  Level FlightAware Approximate
14:39 38.2077 -121.7756 38° Northeast  Level FlightAware Approximate
14:41 37.6090 -122.3790 38° Northeast 74 85  Level FlightAware
14:41 37.6150 -122.3750 28° Northeast 135 155 1,260 Level FlightAware
14:41 37.6312 -122.3640 28° Northeast 162 186 800 2,160 Climbing FlightAware ADS-B
14:41 37.6399 -122.3560 36° Northeast 173 199 1,300 1,980 Climbing FlightAware ADS-B
14:42 37.6454 -122.3490 45° Northeast 185 213 1,600 1,320 Climbing FlightAware ADS-B
14:42 37.6528 -122.3390 47° Northeast 209 241 1,800 720 Climbing FlightAware ADS-B
14:42 37.6620 -122.3270 46° Northeast 233 268 1,900 1,260 Climbing FlightAware ADS-B
14:42 37.6746 -122.3120 43° Northeast 250 288 2,400 2,340 Climbing FlightAware ADS-B
14:43 37.6891 -122.2940 44° Northeast 252 290 3,200 2,640 Climbing FlightAware ADS-B
14:43 37.7033 -122.2770 43° Northeast 260 299 3,900 2,340 Climbing FlightAware ADS-B
14:43 37.7175 -122.2600 43° Northeast 263 303 4,500 2,520 Climbing FlightAware ADS-B
14:44 37.7393 -122.2340 43° Northeast 272 313 5,600 2,760 Climbing FlightAware ADS-B
14:44 37.7581 -122.2150 39° Northeast 272 313 6,500 2,820 Climbing FlightAware ADS-B
14:44 37.7625 -122.2110 36° Northeast 274 315 6,700 2,160 Climbing FlightAware ADS-B
14:44 37.7894 -122.1860 36° Northeast 282 325 7,600 2,100 Climbing FlightAware ADS-B
14:44 37.7979 -122.1780 37° Northeast 284 327 7,900 2,340 Climbing FlightAware ADS-B
14:45 37.8136 -122.1630 37° Northeast 287 330 8,500 2,580 Climbing FlightAware ADS-B
14:45 37.8300 -122.1470 38° Northeast 288 331 9,200 2,400 Climbing FlightAware ADS-B
14:45 37.8462 -122.1320 36° Northeast 292 336 9,700 1,980 Climbing FlightAware ADS-B
14:46 37.8790 -122.1000 38° Northeast 303 349 10,700 1,680 Climbing FlightAware ADS-B
14:46 37.9139 -122.0660 38° Northeast 328 377 11,400 1,260 Climbing FlightAware ADS-B
14:47 37.9560 -122.0260 37° Northeast 352 405 12,100 1,440 Climbing FlightAware ADS-B
14:48 38.0153 -121.9690 37° Northeast 368 423 13,300 1,620 Climbing FlightAware ADS-B
14:48 38.0611 -121.9250 37° Northeast 377 434 14,200 1,560 Climbing FlightAware ADS-B
14:49 38.1250 -121.8620 38° Northeast 405 466 15,400 1,860 Climbing FlightAware
14:49 38.1750 -121.8130 38° Northeast 412 474 16,600 2,280 Climbing FlightAware
14:50 38.2410 -121.7500 37° Northeast 408 470 18,300 1,920 Climbing FlightAware
14:51 38.2780 -121.7010 46° Northeast 414 476 19,000 1,140 Climbing FlightAware
14:51 38.3210 -121.6110 59° Northeast 416 479 19,700 1,440 Climbing FlightAware
14:52 38.3650 -121.5270 56° Northeast 421 484 21,000 1,860 Climbing FlightAware
14:53 38.4030 -121.4510 57° Northeast 425 489 22,100 1,800 Climbing FlightAware ADS-B
14:53 38.4340 -121.3870 58° Northeast 425 489 23,000 1,680 Climbing FlightAware ADS-B
14:54 38.4860 -121.2790 58° Northeast 429 494 24,400 1,380 Climbing FlightAware
14:55 38.5330 -121.1790 59° Northeast 444 511 25,300 1,140 Climbing FlightAware
14:55 38.5770 -121.0840 59° Northeast 455 524 26,100 1,140 Climbing FlightAware
14:56 38.6200 -120.9920 59° Northeast 462 532 26,900 1,080 Climbing FlightAware
14:57 38.6650 -120.8960 59° Northeast 473 544 27,600 900 Climbing FlightAware
14:57 38.7050 -120.8100 59° Northeast 481 554 28,100 900 Climbing FlightAware
14:58 38.7560 -120.7000 59° Northeast 490 564 28,800 960 Climbing FlightAware
14:59 38.8010 -120.6030 59° Northeast 496 571 29,500 1,260 Climbing FlightAware
14:59 38.8540 -120.4890 59° Northeast 494 568 30,600 1,380 Climbing FlightAware
15:00 38.9060 -120.3770 59° Northeast 495 570 31,600 1,320 Climbing FlightAware
15:01 38.9520 -120.2740 60° Northeast 493 567 32,500 1,080 Climbing FlightAware
15:02 38.9990 -120.1720 59° Northeast 497 572 33,100 900 Climbing FlightAware
15:02 39.0400 -120.0820 60° Northeast 498 573 33,700 1,140 Climbing FlightAware
15:03 39.0830 -119.9880 59° Northeast 498 573 34,500 1,140 Climbing FlightAware
15:03 39.1310 -119.8820 60° Northeast 498 573 35,200 960 Climbing FlightAware
15:04 39.1660 -119.8040 60° Northeast 498 573 35,700 1,020 Climbing FlightAware
15:05 39.2120 -119.7020 60° Northeast 497 572 36,400 900 Climbing FlightAware
15:05 39.2570 -119.6000 60° Northeast 498 573 36,900 420 Climbing FlightAware
15:06 39.3090 -119.4850 60° Northeast 498 573 37,000 60 Climbing FlightAware
15:07 39.3510 -119.3890 60° Northeast 496 571 37,000  Level FlightAware
15:07 39.4020 -119.2750 60° Northeast 498 573 37,000  Level FlightAware
15:08 39.4450 -119.1650 63° Northeast 500 575 37,000  Level FlightAware
15:09 39.4850 -119.0550 65° Northeast 499 574 37,000  Level FlightAware
15:09 39.5210 -118.9590 64° Northeast 499 574 37,000  Level FlightAware
15:10 39.5770 -118.8100 64° Northeast 498 573 37,000  Level FlightAware
15:11 39.6360 -118.6540 64° Northeast 498 573 37,000  Level FlightAware
15:12 39.6800 -118.5380 64° Northeast 497 572 37,000  Level FlightAware
15:13 39.7220 -118.4250 64° Northeast 498 573 37,000  Level FlightAware
15:13 39.7650 -118.3090 64° Northeast 499 574 37,000  Level FlightAware
15:14 39.8030 -118.2030 65° Northeast 500 575 37,000  Level FlightAware
15:15 39.8440 -118.0890 65° Northeast 501 577 37,000  Level FlightAware
15:15 39.8870 -117.9710 65° Northeast 501 577 37,000  Level FlightAware
15:16 39.9440 -117.8110 65° Northeast 503 579 37,000  Level FlightAware
15:17 39.9830 -117.7020 65° Northeast 504 580 37,000  Level FlightAware
15:18 40.0110 -117.6220 65° Northeast 505 581 37,000  Level FlightAware
15:18 40.0530 -117.5040 65° Northeast 506 582 37,000  Level FlightAware
15:19 40.0730 -117.4480 65° Northeast 506 582 37,000  Level FlightAware
15:20 40.1140 -117.3350 65° Northeast 506 582 37,000  Level FlightAware
15:20 40.1420 -117.2550 65° Northeast 506 582 37,000  Level FlightAware
15:21 40.1730 -117.1700 64° Northeast 506 582 37,000  Level FlightAware
15:21 40.2030 -117.0850 65° Northeast 506 582 37,000  Level FlightAware
15:22 40.2430 -116.9710 65° Northeast 506 582 37,000  Level FlightAware
15:23 40.2730 -116.8860 65° Northeast 506 582 37,000  Level FlightAware
15:23 40.3050 -116.7960 65° Northeast 506 582 37,000  Level FlightAware
15:24 40.3450 -116.6850 65° Northeast 506 582 37,000  Level FlightAware
15:25 40.3740 -116.6020 65° Northeast 506 582 37,000  Level FlightAware
15:25 40.4050 -116.5150 65° Northeast 506 582 37,000  Level FlightAware
15:26 40.4370 -116.4270 64° Northeast 506 582 37,000  Level FlightAware
15:26 40.5225 -116.1450 68° East 508 585 37,000  Level FlightAware ADS-B
15:27 40.5526 -116.0560 66° East 508 585 37,000  Level FlightAware ADS-B
15:27 40.5813 -115.9700 66° East 508 585 37,000  Level FlightAware ADS-B
15:28 40.6132 -115.8750 66° East 508 585 37,000  Level FlightAware ADS-B
15:31 40.7968 -115.3200 66° East 513 590 37,000  Level FlightAware ADS-B
15:32 40.8255 -115.2320 67° East 514 592 37,000  Level FlightAware ADS-B
15:32 40.8550 -115.1410 67° East 513 590 37,000  Level FlightAware ADS-B
15:33 40.8930 -115.0240 67° East 514 592 37,000  Level FlightAware ADS-B
15:33 40.9214 -114.9360 67° East 514 592 37,000  Level FlightAware ADS-B
15:35 40.9816 -114.7490 67° East 514 592 37,000  Level FlightAware ADS-B
15:35 41.0093 -114.6630 67° East 513 590 37,000  Level FlightAware ADS-B
15:36 41.0405 -114.5650 67° East 512 589 37,000  Level FlightAware ADS-B
15:36 41.0694 -114.4740 67° East 512 589 37,000  Level FlightAware ADS-B
15:37 41.0978 -114.3840 67° East 510 587 37,000  Level FlightAware ADS-B
15:37 41.1404 -114.2500 67° East 510 587 37,000  Level FlightAware ADS-B
15:38 41.1682 -114.1620 67° East 511 588 37,000  Level FlightAware ADS-B
15:38 41.1953 -114.0750 67° East 508 585 37,000  Level FlightAware ADS-B
15:39 41.2224 -113.9880 67° East 509 586 37,000  Level FlightAware ADS-B
15:39 41.2500 -113.8990 68° East 510 587 37,000  Level FlightAware ADS-B
15:40 41.2773 -113.8100 68° East 510 587 37,000  Level FlightAware ADS-B
15:40 41.3041 -113.7240 67° East 509 586 37,000  Level FlightAware ADS-B
15:41 41.3312 -113.6360 68° East 509 586 37,000  Level FlightAware ADS-B
15:41 41.3581 -113.5480 68° East 510 587 37,000  Level FlightAware ADS-B
15:42 41.3889 -113.4470 68° East 510 587 37,000  Level FlightAware ADS-B
15:43 41.4162 -113.3580 68° East 510 587 37,000  Level FlightAware ADS-B
15:43 41.4435 -113.2680 68° East 511 588 37,000  Level FlightAware ADS-B
15:44 41.4702 -113.1800 68° East 511 588 37,000  Level FlightAware ADS-B
15:44 41.4967 -113.0920 68° East 512 589 37,000  Level FlightAware ADS-B
15:45 41.5399 -112.9480 68° East 511 588 37,000  Level FlightAware ADS-B
15:45 41.5718 -112.8410 68° East 513 590 37,000  Level FlightAware ADS-B
15:46 41.5999 -112.7470 68° East 514 592 37,000  Level FlightAware ADS-B
15:47 41.6302 -112.6450 68° East 513 590 37,000  Level FlightAware ADS-B
15:47 41.6582 -112.5500 68° East 514 592 37,000  Level FlightAware ADS-B
15:48 41.6889 -112.4460 68° East 514 592 37,000  Level FlightAware ADS-B
15:48 41.7173 -112.3490 69° East 513 590 37,000  Level FlightAware ADS-B
15:49 41.7440 -112.2580 69° East 514 592 37,000  Level FlightAware ADS-B
15:49 41.7762 -112.1470 69° East 513 590 37,000  Level FlightAware ADS-B
15:50 41.8058 -112.0450 69° East 513 590 37,000  Level FlightAware ADS-B
15:51 41.8409 -111.9230 69° East 511 588 37,000  Level FlightAware ADS-B
15:51 41.8696 -111.8230 69° East 512 589 37,000  Level FlightAware ADS-B
15:52 41.9033 -111.7050 69° East 511 588 37,000  Level FlightAware ADS-B
15:53 41.9453 -111.5580 69° East 513 590 37,000  Level FlightAware ADS-B
15:53 41.9733 -111.4590 69° East 513 590 37,000  Level FlightAware ADS-B
15:54 42.0002 -111.3640 69° East 509 586 37,000  Level FlightAware ADS-B
15:55 42.0401 -111.2220 69° East 508 585 37,000  Level FlightAware ADS-B
15:55 42.0654 -111.1310 69° East 508 585 37,000  Level FlightAware ADS-B
15:56 42.1000 -111.0080 69° East 508 585 37,000  Level FlightAware
15:57 42.1586 -110.7922 69° East 506 582 37,000  Level Salt Lake Center
15:58 42.2056 -110.6236 69° East 503 579 37,000  Level Salt Lake Center
15:59 42.2594 -110.4250 70° East 502 578 37,000  Level Salt Lake Center
16:00 42.3061 -110.2542 70° East 505 581 37,000  Level Salt Lake Center
16:01 42.3589 -110.0572 70° East 501 577 37,000  Level Salt Lake Center
16:02 42.4044 -109.8881 70° East 499 574 37,000  Level Salt Lake Center
16:03 42.4486 -109.7181 71° East 500 575 37,000  Level Salt Lake Center
16:04 42.5019 -109.5189 70° East 502 578 37,000  Level Salt Lake Center
16:05 42.5469 -109.3456 71° East 506 582 37,000  Level Salt Lake Center
16:06 42.5986 -109.1447 71° East 505 581 37,000  Level Salt Lake Center
16:07 42.6431 -108.9725 71° East 505 581 37,000  Level Salt Lake Center
16:09 42.6936 -108.7717 71° East 503 579 37,000  Level Salt Lake Center
16:10 42.7375 -108.6006 71° East 501 577 37,000  Level Salt Lake Center
16:11 42.7872 -108.4008 71° East 499 574 37,000  Level Salt Lake Center
16:12 42.8286 -108.2286 72° East 500 575 37,000  Level Salt Lake Center
16:13 42.8778 -108.0300 71° East 499 574 37,000  Level Salt Lake Center
16:14 42.9197 -107.8603 71° East 495 570 37,000  Level Salt Lake Center
16:15 42.9647 -107.6708 72° East 499 574 37,000  Level Salt Lake Center
16:16 43.0078 -107.4925 72° East 499 574 37,000  Level Salt Lake Center
16:17 43.0494 -107.3133 72° East 497 572 37,000  Level Salt Lake Center
16:18 43.0925 -107.1331 72° East 500 575 37,000  Level Salt Lake Center
16:19 43.1436 -106.9247 71° East 497 572 37,000  Level Salt Lake Center
16:20 43.1903 -106.7222 72° East 497 572 37,000  Level Denver Center
16:21 43.2358 -106.5219 73° East 494 568 37,000  Level Denver Center
16:22 43.2750 -106.3492 73° East 495 570 37,000  Level Denver Center
16:23 43.3219 -106.1481 72° East 494 568 37,000  Level Denver Center
16:24 43.3606 -105.9736 73° East 496 571 37,000  Level Denver Center
16:25 43.4117 -105.7411 73° East 497 572 37,000  Level Denver Center
16:26 43.4506 -105.5653 73° East 500 575 37,000  Level Denver Center
16:27 43.4958 -105.3611 73° East 500 575 37,000  Level Denver Center
16:29 43.5328 -105.1875 74° East 496 571 37,000  Level Denver Center
16:30 43.5764 -104.9842 73° East 495 570 37,000  Level Denver Center
16:31 43.6133 -104.8094 60° Northeast 493 567 37,000  Level Denver Center
16:32 43.6500 -104.6347 74° East 494 568 37,000  Level Denver Center
16:33 43.6928 -104.4306 74° East 494 568 37,000  Level Denver Center
16:34 43.7289 -104.2550 74° East 495 570 37,000  Level Denver Center
16:35 43.7706 -104.0519 74° East 492 566 37,000  Level Denver Center
16:36 43.8050 -103.8800 74° East 485 558 37,000  Level Denver Center
16:37 43.8467 -103.6772 74° East 488 562 37,000  Level Denver Center
16:38 43.8806 -103.5019 75° East 492 566 37,000  Level Denver Center
16:39 43.9222 -103.3022 74° East 485 558 37,000  Level Denver Center
16:40 43.9564 -103.1283 75° East 486 559 37,000  Level Denver Center
16:41 43.9944 -102.9258 75° East 486 559 37,000  Level Denver Center
16:42 44.0142 -102.7567 81° East 485 558 37,000  Level Denver Center
16:43 44.0397 -102.5722 79° East 486 559 37,000  Level Denver Center
16:44 44.0656 -102.3917 79° East 482 555 37,000  Level Denver Center
16:45 44.0942 -102.1736 80° East 479 551 37,000  Level Denver Center
16:46 44.1172 -101.9914 80° East 479 551 37,000  Level Denver Center
16:47 44.1400 -101.8094 80° East 478 550 37,000  Level Denver Center
16:48 44.1639 -101.6294 79° East 476 548 37,000  Level Denver Center
16:49 44.1881 -101.4489 79° East 475 547 37,000  Level Denver Center
16:50 44.2092 -101.3067 78° East 476 548 37,000  Level Minneapolis Center
16:51 44.2333 -101.1250 79° East 477 549 37,000  Level Minneapolis Center
16:52 44.2608 -100.9053 80° East 479 551 37,000  Level Minneapolis Center
16:53 44.2858 -100.7228 79° East 481 554 37,000  Level Minneapolis Center
16:54 44.3078 -100.5381 81° East 483 556 37,000  Level Minneapolis Center
16:55 44.3297 -100.3550 80° East 482 555 37,000  Level Minneapolis Center
16:56 44.3533 -100.1717 80° East 483 556 37,000  Level Minneapolis Center
16:57 44.3792 -99.9522 81° East 481 554 37,000  Level Minneapolis Center
16:58 44.4006 -99.7697 81° East 480 552 37,000  Level Minneapolis Center
16:59 44.4217 -99.5867 81° East 481 554 37,000  Level Minneapolis Center
17:00 44.4442 -99.4033 80° East 481 554 37,000  Level Minneapolis Center
17:06 44.5660 -98.2670 80° East 478 550 37,000  Level FlightAware
17:07 44.5780 -98.1520 82° East 477 549 37,000  Level FlightAware
17:08 44.5940 -97.9970 82° East 477 549 37,000  Level FlightAware
17:09 44.6080 -97.8720 81° East 477 549 37,000  Level FlightAware
17:09 44.6180 -97.7840 81° East 477 549 37,000  Level FlightAware
17:10 44.6320 -97.6590 81° East 477 549 37,000  Level FlightAware
17:10 44.6390 -97.5960 81° East 477 549 37,000  Level FlightAware
17:12 44.7450 -97.3760 56° Northeast 475 547 37,000  Level FlightAware
17:12 44.7800 -97.2310 71° East 477 549 37,000  Level FlightAware
17:13 44.8070 -97.1180 71° East 478 550 37,000  Level FlightAware
17:14 44.8400 -96.9800 71° East 479 551 37,000  Level FlightAware
17:14 44.8690 -96.8610 71° East 479 551 37,000  Level FlightAware
17:15 44.9000 -96.7330 71° East 479 551 37,000  Level FlightAware
17:16 44.9290 -96.6090 72° East 479 551 37,000  Level FlightAware
17:16 44.9570 -96.4870 72° East 479 551 37,000  Level FlightAware
17:17 44.9870 -96.3610 71° East 479 551 37,000  Level FlightAware
17:18 45.0170 -96.2320 72° East 479 551 37,000  Level FlightAware
17:19 45.0440 -96.1140 72° East 479 551 37,000  Level FlightAware
17:19 45.0690 -96.0060 72° East 479 551 37,000  Level FlightAware
17:20 45.0960 -95.8870 72° East 480 552 37,000  Level FlightAware
17:21 45.1250 -95.7630 72° East 481 554 37,000  Level FlightAware
17:21 45.1530 -95.6360 73° East 481 554 37,000  Level FlightAware
17:22 45.1750 -95.5380 72° East 481 554 37,000  Level FlightAware
17:23 45.2150 -95.3610 72° East 481 554 37,000  Level FlightAware
17:24 45.2490 -95.2070 73° East 481 554 37,000  Level FlightAware
17:24 45.2760 -95.0840 73° East 480 552 37,000  Level FlightAware
17:25 45.3050 -94.9520 73° East 480 552 37,000  Level FlightAware
17:26 45.3200 -94.8830 73° East 480 552 37,000  Level FlightAware
17:26 45.3490 -94.7490 73° East 481 554 37,000  Level FlightAware
17:27 45.3780 -94.6140 73° East 482 555 37,000  Level FlightAware
17:28 45.4050 -94.4900 73° East 482 555 37,000  Level FlightAware
17:28 45.4260 -94.3920 73° East 483 556 37,000  Level FlightAware
17:29 45.4550 -94.2540 73° East 485 558 37,000  Level FlightAware
17:30 45.4810 -94.1310 73° East 485 558 37,000  Level FlightAware
17:30 45.5040 -94.0200 73° East 485 558 37,000  Level FlightAware
17:31 45.5190 -93.8910 81° East 497 572 37,000  Level FlightAware
17:32 45.5150 -93.7510 92° East 505 581 37,000  Level FlightAware
17:32 45.5080 -93.6280 95° East 505 581 37,000  Level FlightAware
17:33 45.5000 -93.4940 95° East 505 581 37,000  Level FlightAware
17:34 45.4910 -93.3540 95° East 504 580 37,000  Level FlightAware
17:34 45.4810 -93.2110 96° East 502 578 37,000  Level FlightAware
17:35 45.4720 -93.0720 95° East 499 574 37,000  Level FlightAware
17:36 45.4630 -92.9350 95° East 497 572 37,000  Level FlightAware
17:36 45.4540 -92.8060 96° East 496 571 37,000  Level FlightAware
17:37 45.4440 -92.6630 96° East 496 571 37,000  Level FlightAware
17:38 45.4350 -92.5350 96° East 496 571 37,000 240 Level FlightAware
17:38 45.4250 -92.3990 96° East 495 570 37,400 840 Climbing FlightAware
17:39 45.4150 -92.2700 96° East 493 567 38,200 780 Climbing FlightAware
17:40 45.4050 -92.1250 96° East 502 578 38,500 480 Climbing FlightAware
17:40 45.3960 -92.0040 96° East 504 580 38,900 300 Climbing FlightAware
17:41 45.3850 -91.8490 96° East 509 586 39,000 60 Climbing FlightAware
17:42 45.3740 -91.7010 96° East 511 588 39,000  Level FlightAware
17:43 45.3630 -91.5660 97° East 512 589 39,000  Level FlightAware
17:43 45.3520 -91.4270 96° East 511 588 39,000  Level FlightAware
17:44 45.3440 -91.3150 96° East 510 587 39,000  Level FlightAware
17:45 45.3320 -91.1740 97° East 510 587 39,000  Level FlightAware
17:45 45.3210 -91.0300 96° East 510 587 39,000  Level FlightAware
17:46 45.3110 -90.9190 97° East 510 587 39,000  Level FlightAware
17:47 45.3000 -90.7820 96° East 509 586 39,000  Level FlightAware
17:47 45.2870 -90.6330 97° East 509 586 39,000  Level FlightAware
17:48 45.2760 -90.4980 97° East 510 587 39,000  Level FlightAware
17:49 45.2650 -90.3760 97° East 510 587 39,000  Level FlightAware
17:49 45.2520 -90.2270 97° East 512 589 39,000  Level FlightAware
17:50 45.2380 -90.0700 97° East 513 590 39,000  Level FlightAware
17:51 45.2280 -89.9570 97° East 514 592 39,000  Level FlightAware
17:51 45.2160 -89.8280 97° East 513 590 39,000  Level FlightAware
17:52 45.2020 -89.6790 98° East 512 589 39,000  Level FlightAware
17:53 45.1910 -89.5630 98° East 513 590 39,000  Level FlightAware
17:54 45.1740 -89.3860 98° East 513 590 39,000  Level FlightAware
17:54 45.1620 -89.2620 98° East 512 589 39,000  Level FlightAware
17:55 45.1430 -89.0740 98° East 513 590 39,000  Level FlightAware
17:56 45.1300 -88.9400 98° East 513 590 39,000  Level FlightAware
17:57 45.1170 -88.8110 98° East 512 589 39,000  Level FlightAware
17:57 45.1010 -88.6640 99° East 512 589 39,000  Level FlightAware
17:58 45.0870 -88.5270 98° East 512 589 39,000  Level FlightAware
17:59 45.0730 -88.3890 98° East 512 589 39,000  Level FlightAware
17:59 45.0580 -88.2480 99° East 513 590 39,000  Level FlightAware
18:00 45.0470 -88.1440 98° East 514 592 39,000  Level FlightAware
18:01 45.0310 -87.9970 99° East 516 594 39,000  Level FlightAware
18:01 45.0170 -87.8720 99° East 517 595 39,000  Level FlightAware
18:02 45.0020 -87.7360 99° East 518 596 39,000  Level FlightAware
18:03 44.9870 -87.6040 99° East 519 597 39,000  Level FlightAware
18:03 44.9700 -87.4540 99° East 520 598 39,000  Level FlightAware
18:04 44.9450 -87.2410 99° East 525 604 39,000  Level FlightAware
18:05 44.9360 -87.1590 99° East 527 606 39,000  Level FlightAware
18:06 44.9100 -86.9360 99° East 528 608 39,000  Level FlightAware
18:07 44.8850 -86.7280 100° East 532 612 39,000  Level FlightAware
18:08 44.8730 -86.6200 99° East 532 612 39,000  Level FlightAware
18:09 44.8420 -86.3860 101° East 534 615 39,000  Level FlightAware
18:09 44.8270 -86.2620 100° East 533 613 39,000  Level FlightAware
18:10 44.8030 -86.0690 100° East 531 611 39,000  Level FlightAware
18:12 44.7700 -85.8130 100° East 524 603 39,000  Level FlightAware
18:12 44.7440 -85.6180 101° East 517 595 39,000  Level FlightAware
18:13 44.7270 -85.4850 100° East 513 590 39,000  Level FlightAware
18:14 44.7100 -85.3580 101° East 509 586 39,000  Level FlightAware
18:14 44.6890 -85.2030 101° East 507 583 39,000  Level FlightAware
18:15 44.6710 -85.0750 101° East 507 583 39,000  Level FlightAware
18:16 44.6560 -84.9610 100° East 509 586 39,000  Level FlightAware
18:16 44.6380 -84.8330 101° East 513 590 39,000  Level FlightAware
18:17 44.6180 -84.6870 101° East 517 595 39,000  Level FlightAware
18:18 44.6020 -84.5720 101° East 519 597 39,000  Level FlightAware
18:18 44.5820 -84.4330 101° East 523 602 39,000  Level FlightAware
18:19 44.5630 -84.3000 101° East 526 605 39,000  Level FlightAware
18:19 44.5510 -84.2210 102° East 527 606 39,000  Level FlightAware
18:21 44.5220 -84.0190 101° East 530 610 39,000  Level FlightAware
18:21 44.4920 -83.8180 102° East 533 613 39,000  Level FlightAware
18:22 44.4730 -83.6870 101° East 534 615 39,000  Level FlightAware
18:23 44.4420 -83.4850 102° East 534 615 39,000  Level FlightAware
18:24 44.4220 -83.3520 102° East 534 615 39,000  Level FlightAware
18:25 44.3970 -83.1900 102° East 533 613 39,000  Level FlightAware
18:25 44.3780 -83.0690 102° East 532 612 39,000  Level FlightAware
18:26 44.3580 -82.9370 102° East 531 611 39,000  Level FlightAware
18:27 44.3340 -82.7830 102° East 530 610 39,000  Level FlightAware
18:27 44.3140 -82.6570 102° East 530 610 39,000  Level FlightAware
18:28 44.2960 -82.5480 103° East 529 609 39,000  Level FlightAware
18:29 44.2700 -82.3840 102° East 528 608 39,000  Level FlightAware
18:29 44.2460 -82.2460 104° East 527 606 39,000  Level FlightAware
18:30 44.2270 -82.1530 106° East 526 605 39,000  Level FlightAware
18:31 44.1950 -82.0010 106° East 526 605 39,000  Level FlightAware
18:31 44.1710 -81.8900 107° East 527 606 39,000  Level FlightAware
18:32 44.1440 -81.7670 107° East 527 606 39,000  Level FlightAware
18:33 44.1180 -81.6460 107° East 526 605 39,000  Level FlightAware
18:33 44.0820 -81.4820 107° East 525 604 39,000  Level FlightAware
18:34 44.0480 -81.3280 107° East 526 605 39,000  Level FlightAware
18:35 44.0150 -81.1780 107° East 524 603 39,000  Level FlightAware
18:35 43.9910 -81.0720 107° East 524 603 39,000  Level FlightAware
18:36 43.9600 -80.9320 107° East 524 603 39,000  Level FlightAware
18:37 43.9240 -80.7740 108° East 525 604 39,000  Level FlightAware
18:38 43.8900 -80.6230 107° East 524 603 39,000  Level FlightAware
18:38 43.8660 -80.5200 108° East 523 602 39,000  Level FlightAware
18:39 43.8370 -80.3950 108° East 524 603 39,000  Level FlightAware
18:40 43.7960 -80.2160 108° East 524 603 39,000  Level FlightAware
18:41 43.7450 -79.9970 108° East 523 602 39,000  Level FlightAware
18:42 43.7140 -79.8670 108° East 522 601 39,000  Level FlightAware
18:42 43.6840 -79.7390 108° East 524 603 39,000  Level FlightAware
18:43 43.6630 -79.6070 102° East 535 616 39,000  Level FlightAware
18:44 43.6630 -79.4880 90° East 541 623 39,000  Level FlightAware
18:44 43.6690 -79.3320 87° East 541 623 39,000  Level FlightAware
18:45 43.6730 -79.2140 87° East 541 623 39,000  Level FlightAware
18:46 43.6790 -79.0570 87° East 542 624 39,000  Level FlightAware
18:46 43.6830 -78.9190 88° East 542 624 39,000  Level FlightAware
18:47 43.6880 -78.7710 87° East 544 626 39,000  Level FlightAware
18:48 43.6920 -78.6440 87° East 544 626 39,000  Level FlightAware
18:48 43.6970 -78.4680 88° East 544 626 39,000  Level FlightAware
18:49 43.7000 -78.3300 88° East 545 627 39,000  Level FlightAware
18:50 43.7030 -78.2050 88° East 546 628 39,000  Level FlightAware
18:50 43.7070 -78.0650 88° East 547 629 39,000  Level FlightAware
18:51 43.7100 -77.9290 88° East 547 629 39,000  Level FlightAware
18:52 43.7140 -77.7820 88° East 548 631 39,000  Level FlightAware
18:52 43.7160 -77.6590 89° East 549 632 39,000  Level FlightAware
18:53 43.7190 -77.5050 88° East 550 633 39,000  Level FlightAware
18:54 43.7220 -77.3660 88° East 550 633 39,000  Level FlightAware
18:54 43.7250 -77.2020 88° East 552 635 39,000  Level FlightAware
18:55 43.7270 -77.0620 89° East 552 635 39,000  Level FlightAware
18:56 43.7290 -76.9200 89° East 553 636 39,000  Level FlightAware
18:57 43.7300 -76.8290 89° East 544 626 39,000  Level FlightAware
18:57 43.7070 -76.7110 105° East 530 610 39,000  Level FlightAware
18:58 43.6430 -76.6010 129° Southeast 496 571 39,000  Level FlightAware
18:58 43.5700 -76.5050 136° Southeast 494 568 39,000  Level FlightAware
18:59 43.5140 -76.4310 136° Southeast 494 568 39,000  Level FlightAware
19:00 43.4480 -76.3440 136° Southeast 495 570 39,000  Level FlightAware
19:00 43.3750 -76.2480 136° Southeast 495 570 39,000  Level FlightAware
19:01 43.3030 -76.1550 137° Southeast 495 570 39,000  Level FlightAware
19:02 43.2370 -76.0680 136° Southeast 493 567 39,000  Level FlightAware
19:02 43.1690 -75.9800 137° Southeast 493 567 39,000  Level FlightAware
19:03 43.0970 -75.8860 136° Southeast 492 566 39,000  Level FlightAware
19:04 43.0310 -75.8010 137° Southeast 491 565 39,000  Level FlightAware
19:04 42.9730 -75.7260 137° Southeast 492 566 39,000  Level FlightAware
19:05 42.9030 -75.6370 137° Southeast 490 564 39,000  Level FlightAware
19:06 42.8370 -75.5520 137° Southeast 490 564 39,000  Level FlightAware
19:06 42.7710 -75.4680 137° Southeast 488 562 39,000  Level FlightAware
19:07 42.7040 -75.3830 137° Southeast 486 559 39,000 -840 Level FlightAware
19:08 42.6370 -75.2970 137° Southeast 477 549 37,900 -2,340 Descending FlightAware
19:08 42.5660 -75.2070 137° Southeast 486 559 35,700 -3,000 Descending FlightAware
19:09 42.5010 -75.1260 137° Southeast 495 570 33,700 -2,880 Descending FlightAware
19:10 42.4030 -75.0040 137° Southeast 514 592 31,100 -1,380 Descending FlightAware
19:12 42.1894 -74.7362 137° Southeast 514 592 29,800 -1,020 Descending FlightAware ADS-B
19:13 42.1195 -74.6497 137° Southeast 502 578 28,400 -1,320 Descending FlightAware ADS-B
19:13 42.0491 -74.5628 137° Southeast 502 578 28,000 -360 Descending FlightAware ADS-B
19:14 41.9883 -74.4841 136° Southeast 508 585 28,000  Level FlightAware ADS-B
19:14 41.9535 -74.4255 129° Southeast 516 594 28,000  Level FlightAware ADS-B
19:15 41.9242 -74.3716 126° Southeast 514 592 28,000  Level FlightAware ADS-B
19:15 41.8654 -74.2992 137° Southeast 514 592 28,000  Level FlightAware ADS-B
19:15 41.8559 -74.2906 146° Southeast 503 579 28,000  Level FlightAware ADS-B
19:16 41.8147 -74.2606 152° Southeast 496 571 28,000 -720 Level FlightAware ADS-B
19:16 41.7487 -74.2283 160° South 484 557 27,400 -2,040 Descending FlightAware ADS-B
19:17 41.6520 -74.1850 161° South 476 548 25,400 -2,580 Descending FlightAware
19:17 41.6312 -74.1753 161° South 479 551 25,000 -2,580 Descending FlightAware ADS-B
19:18 41.5686 -74.1470 161° South 471 542 23,700 -2,580 Descending FlightAware ADS-B
19:18 41.5013 -74.1163 161° South 464 534 22,300 -2,580 Descending FlightAware ADS-B
19:19 41.4388 -74.0886 162° South 451 519 21,000 -2,460 Descending FlightAware ADS-B
19:19 41.4279 -74.0855 168° South 447 514 20,800 -2,280 Descending FlightAware ADS-B
19:19 41.4068 -74.0828 175° South 438 504 20,400 -2,340 Descending FlightAware ADS-B
19:19 41.4007 -74.0828 180° South 436 502 20,300 -1,020 Descending FlightAware ADS-B
19:19 41.3712 -74.0879 187° South 430 495 20,100 -840 Descending FlightAware ADS-B
19:20 41.3586 -74.0930 197° South 425 489 20,000 -360 Descending FlightAware ADS-B
19:20 41.3410 -74.1033 204° Southwest 417 480 20,000  Level FlightAware ADS-B
19:20 41.3104 -74.1271 210° Southwest 415 478 20,000  Level FlightAware ADS-B
19:21 41.2590 -74.1699 212° Southwest 409 471 20,000  Level FlightAware ADS-B
19:21 41.2205 -74.2030 213° Southwest 406 467 20,000  Level FlightAware ADS-B
19:21 41.2098 -74.2121 213° Southwest 406 467 20,000  Level FlightAware ADS-B
19:21 41.1914 -74.2247 207° Southwest 410 472 20,000  Level FlightAware ADS-B
19:21 41.1872 -74.2271 203° Southwest 410 472 20,000  Level FlightAware ADS-B
19:21 41.1680 -74.2356 198° South 411 473 20,000  Level FlightAware ADS-B
19:21 41.1626 -74.2373 193° South 410 472 20,000 -480 Level FlightAware ADS-B
19:22 41.1422 -74.2412 188° South 409 471 19,900 -840 Descending FlightAware ADS-B
19:22 41.1195 -74.2410 180° South 409 471 19,700 -900 Descending FlightAware ADS-B
19:22 41.1038 -74.2379 172° South 412 474 19,600 -720 Descending FlightAware ADS-B
19:22 41.0885 -74.2323 165° South 414 476 19,500 -420 Descending FlightAware ADS-B
19:23 41.0487 -74.2109 158° South 416 479 19,400 -240 Descending FlightAware ADS-B
19:23 41.0342 -74.2028 157° South 415 478 19,400 -240 Level FlightAware ADS-B
19:23 40.9931 -74.1794 157° South 414 476 19,300 -240 Descending FlightAware ADS-B
19:23 40.9761 -74.1696 156° South 414 476 19,300 -480 Level FlightAware ADS-B
19:23 40.9492 -74.1539 156° South 409 471 19,100 -660 Descending FlightAware ADS-B
19:24 40.9301 -74.1389 149° Southeast 404 465 19,000 -360 Descending FlightAware ADS-B
19:24 40.9211 -74.1299 143° Southeast 399 459 19,000  Level FlightAware ADS-B
19:24 40.9111 -74.1180 138° Southeast 391 450 19,000  Level FlightAware ADS-B
19:24 40.9092 -74.1155 135° Southeast 390 449 19,000  Level FlightAware ADS-B
19:24 40.9051 -74.1096 133° Southeast 386 444 19,000  Level FlightAware ADS-B
19:24 40.8909 -74.0881 131° Southeast 370 426 19,000  Level FlightAware ADS-B
19:24 40.8879 -74.0841 135° Southeast 367 422 19,000  Level FlightAware ADS-B
19:24 40.8815 -74.0761 137° Southeast 358 412 19,000  Level FlightAware ADS-B
19:24 40.8783 -74.0728 142° Southeast 355 409 19,000  Level FlightAware ADS-B
19:24 40.8757 -74.0702 143° Southeast 352 405 19,000  Level FlightAware ADS-B
19:24 40.8680 -74.0637 147° Southeast 346 398 19,000  Level FlightAware ADS-B
19:24 40.8650 -74.0616 152° Southeast 343 395 19,000 -780 Level FlightAware ADS-B
19:25 40.8566 -74.0566 156° South 339 390 18,900 -1,140 Descending FlightAware ADS-B
19:25 40.8504 -74.0535 159° South 337 388 18,800 -1,920 Descending FlightAware ADS-B
19:25 40.8044 -74.0346 163° South 339 390 17,800 -1,680 Descending FlightAware ADS-B
19:26 40.7568 -74.0157 163° South 332 382 17,100 -1,320 Descending FlightAware ADS-B
19:26 40.7440 -74.0107 164° South 331 381 16,900 -1,320 Descending FlightAware ADS-B
19:26 40.7113 -73.9977 163° South 326 375 16,400 -1,500 Descending FlightAware ADS-B
19:27 40.6683 -73.9804 163° South 322 371 15,600 -1,680 Descending FlightAware ADS-B
19:27 40.6231 -73.9626 163° South 320 368 14,700 -1,740 Descending FlightAware ADS-B
19:28 40.5652 -73.9402 164° South 312 359 13,500 -1,320 Descending FlightAware ADS-B
19:28 40.5233 -73.9243 164° South 299 344 13,100 -1,020 Descending FlightAware ADS-B
19:29 40.4838 -73.9093 164° South 286 329 12,500 -1,080 Descending FlightAware ADS-B
19:29 40.4784 -73.9080 170° South 283 326 12,500 -1,140 Level FlightAware ADS-B
19:29 40.4693 -73.9070 175° South 277 319 12,300 -960 Descending FlightAware ADS-B
19:30 40.4317 -73.9086 182° South 256 295 11,900 -1,020 Descending FlightAware ADS-B
19:30 40.4043 -73.9106 183° South 245 282 11,400 -1,560 Descending FlightAware ADS-B
19:31 40.3694 -73.9139 184° South 240 276 10,500 -1,800 Descending FlightAware ADS-B
19:31 40.3519 -73.9158 185° South 240 276 10,000 -1,980 Descending FlightAware ADS-B
19:31 40.3354 -73.9176 185° South 238 274 9,500 -1,680 Descending FlightAware ADS-B
19:31 40.3161 -73.9194 184° South 234 269 9,100 -1,440 Descending FlightAware ADS-B
19:32 40.3080 -73.9195 181° South 234 269 8,900 -1,680 Descending FlightAware ADS-B
19:32 40.2963 -73.9152 164° South 236 272 8,600 -1,680 Descending FlightAware ADS-B
19:32 40.2900 -73.9096 146° Southeast 239 275 8,400 -1,740 Descending FlightAware ADS-B
19:32 40.2849 -73.9022 132° Southeast 242 278 8,200 -1,800 Descending FlightAware ADS-B
19:32 40.2794 -73.8895 120° Southeast 243 280 7,900 -1,620 Descending FlightAware ADS-B
19:32 40.2718 -73.8683 115° Southeast 249 287 7,500 -1,440 Descending FlightAware ADS-B
19:33 40.2630 -73.8430 114° Southeast 251 289 7,100 -1,320 Descending FlightAware ADS-B
19:33 40.2533 -73.8154 115° Southeast 250 288 6,700 -1,080 Descending FlightAware ADS-B
19:33 40.2458 -73.7946 115° Southeast 249 287 6,500 -1,020 Descending FlightAware ADS-B
19:34 40.2310 -73.7440 111° Southeast 246 283 5,800 -1,140 Descending FlightAware
19:34 40.2397 -73.7159 68° East 246 283 5,400 -1,020 Descending FlightAware ADS-B
19:34 40.2530 -73.7035 35° Northeast 233 268 5,200 -1,020 Descending FlightAware ADS-B
19:35 40.2672 -73.6931 29° Northeast 233 268 4,900 -1,380 Descending FlightAware ADS-B
19:35 40.2830 -73.6818 29° Northeast 232 267 4,500 -1,260 Descending FlightAware ADS-B
19:35 40.2994 -73.6700 29° Northeast 232 267 4,200 -720 Descending FlightAware ADS-B
19:36 40.3202 -73.6505 36° Northeast 230 265 4,000 -300 Descending FlightAware ADS-B
19:36 40.3374 -73.6331 38° Northeast 229 264 4,000  Level FlightAware ADS-B
19:36 40.3589 -73.6111 38° Northeast 229 264 4,000  Level FlightAware ADS-B
19:37 40.3726 -73.5973 38° Northeast 227 261 4,000  Level FlightAware ADS-B
19:37 40.3856 -73.5843 37° Northeast 227 261 4,000  Level FlightAware ADS-B
19:37 40.4011 -73.5687 37° Northeast 227 261 4,000  Level FlightAware ADS-B
19:38 40.4242 -73.5457 37° Northeast 228 262 4,000  Level FlightAware ADS-B
19:38 40.4520 -73.5220 33° Northeast 228 262 4,000  Level FlightAware
19:38 40.4614 -73.5165 24° Northeast 228 262 4,000  Level FlightAware ADS-B
19:39 40.4700 -73.5125 19° North 229 264 4,000  Level FlightAware ADS-B
19:39 40.4896 -73.5044 17° North 228 262 4,000  Level FlightAware ADS-B
19:39 40.5056 -73.4979 17° North 227 261 4,000  Level FlightAware ADS-B
19:40 40.5440 -73.4820 17° North 228 262 4,000  Level FlightAware
19:40 40.5572 -73.4771 16° North 227 261 4,000  Level FlightAware ADS-B
19:41 40.5990 -73.4610 16° North 227 261 4,000  Level FlightAware
19:41 40.6270 -73.4500 17° North 227 261 4,000  Level FlightAware
19:42 40.6560 -73.4380 17° North 228 262 4,000  Level FlightAware
19:42 40.6710 -73.4320 17° North 228 262 4,000  Level FlightAware
19:42 40.7000 -73.4210 16° North 229 264 4,000  Level FlightAware
19:43 40.7290 -73.4270 351° North 229 264 4,000  Level FlightAware
19:43 40.7580 -73.4350 348° North 228 262 4,000 -120 Level FlightAware
19:44 40.7810 -73.4430 345° North 209 241 3,900 -420 Descending FlightAware
19:44 40.8020 -73.4480 350° North 200 230 3,700 -540 Descending FlightAware
19:44 40.8110 -73.4530 337° Northwest 199 229 3,600 -840 Descending FlightAware
19:45 40.8210 -73.4710 306° West 198 228 3,300 -1,080 Descending FlightAware
19:45 40.8220 -73.4820 277° West 197 227 3,100 -480 Descending FlightAware
19:45 40.8160 -73.5220 259° West 204 235 3,000 -180 Descending FlightAware
19:46 40.8120 -73.5410 254° West 206 237 3,000 -300 Level FlightAware
19:46 40.8060 -73.5750 257° West 202 232 2,800 -720 Descending FlightAware
19:46 40.8000 -73.6040 255° West 202 232 2,400 -960 Descending FlightAware
19:47 40.7890 -73.6300 241° Southwest 199 229 2,000 -600 Descending FlightAware
19:47 40.7780 -73.6460 228° Southwest 186 214 2,000  Level FlightAware
19:48 40.7600 -73.6650 219° Southwest 170 196 2,000 -120 Level FlightAware
19:48 40.7420 -73.6800 212° Southwest 170 196 1,900 -300 Descending FlightAware
19:48 40.7300 -73.6890 210° Southwest 170 196 1,800 -600 Descending FlightAware
19:49 40.7140 -73.7010 210° Southwest 162 186 1,500 -780 Descending FlightAware
19:49 40.6940 -73.7160 210° Southwest 140 161 1,100 -720 Descending FlightAware
19:50 40.6790 -73.7280 211° Southwest 138 159 800 -600 Descending FlightAware
19:50 40.6670 -73.7380 212° Southwest 135 155 600 -660 Descending FlightAware
19:51 40.6490 -73.7520 211° Southwest 136 157 200 -720 Descending FlightAware